Terug naar catalogus

CZ-3C DEB

ActiefHEO
NORAD 42467·DEBRIS·🇨🇳 China

Gelanceerd Oct 31, 2010 vanaf Xichang Satellite Launch Center

Loading…

Volgende Passages (komende 24 uur)

TLE

VersSource: Space-Track

Epoch: Sep 9, 2026, 10:21 UTC

1 42467U 10057BG  26252.43191982  .00013239  00000-0  53658-2 0  9997
2 42467  20.1763 304.0518 4474574 279.7753  34.0181  6.40498858246540

Volg CZ-3C DEB in realtime met AllMySat

Download on the App Store